Change the Weather History Date:

Monday, May 20, 2013

  Actual Average Record
Temperature  
Mean Temperature 68 °F -  
Max Temperature 80 °F 80 °F 102 °F (2014)
Min Temperature 57 °F 56 °F 40 °F (1981)
Cooling Degree Days 4    
Growing Degree Days 18 (Base 50)    
Moisture  
Dew Point 55 °F    
Average Humidity 62    
Maximum Humidity 88    
Minimum Humidity 42    
Precipitation  
Precipitation 0.00 in - - ()
Sea Level Pressure  
Sea Level Pressure 29.74 in    
Wind  
Wind Speed 9 mph (NNE)    
Max Wind Speed 17 mph    
Max Gust Speed 22 mph    
Visibility 10 miles    
Events      
Averages and records for this station are not official NWS values.
T = Trace of Precipitation, MM = Missing Value Source: NWS Daily Summary

Daily Weather History Graph

Daily Weather History Graph

Search for Another Location

Airport or City:

Trip Planner

Search our weather history database for the weather conditions in past years. The results will help you decide how hot, cold, wet, or windy it might be!

Date:

Astronomy

May. 20, 2013 Rise Set
Actual Time 6:23 AM CDT 8:39 PM CDT
Civil Twilight 5:53 AM CDT 9:09 PM CDT
Nautical Twilight 5:17 AM CDT 9:45 PM CDT
Astronomical Twilight 4:38 AM CDT 10:24 PM CDT
Moon 3:55 PM CDT (5/20) 3:11 AM CDT (5/20)
Length of Visible Light 15h 15m
Length of Day
14h 16m
Waxing Gibbous, 75% of the Moon is Illuminated
May 20
Waxing Gibbous
May 24
Full
May 31
Last Quarter
Jun 8
New
Jun 16
First Quarter

Hourly Weather History & Observations

Time (CDT) Temp. Heat Index Dew Point Humidity Pressure Visibility Wind Dir Wind Speed Gust Speed Precip Events Conditions
12:05 AM 68.0 °F - 53.6 °F 60% 29.71 in 10.0 mi NNE 10.4 mph - N/A   Clear
12:25 AM 68.0 °F - 53.6 °F 60% 29.70 in 10.0 mi ENE 11.5 mph 17.3 mph N/A   Clear
12:45 AM 66.2 °F - 53.6 °F 64% 29.71 in 10.0 mi ENE 10.4 mph - N/A   Partly Cloudy
1:05 AM 66.2 °F - 51.8 °F 60% 29.69 in 10.0 mi East 12.7 mph - N/A   Clear
1:25 AM 66.2 °F - 51.8 °F 60% 29.69 in 10.0 mi ENE 9.2 mph - N/A   Clear
1:45 AM 64.4 °F - 51.8 °F 64% 29.70 in 10.0 mi NNE 6.9 mph - N/A   Clear
2:05 AM 62.6 °F - 51.8 °F 68% 29.68 in 10.0 mi NE 8.1 mph - N/A   Clear
2:25 AM 62.6 °F - 51.8 °F 68% 29.65 in 10.0 mi NE 6.9 mph - N/A   Clear
2:45 AM 59.0 °F - 51.8 °F 77% 29.66 in 10.0 mi NE 4.6 mph - N/A   Clear
3:05 AM 57.2 °F - 53.6 °F 88% 29.67 in 10.0 mi NNW 9.2 mph - N/A   Partly Cloudy
3:25 AM 57.2 °F - 51.8 °F 82% 29.68 in 10.0 mi NNW 9.2 mph - N/A   Partly Cloudy
3:45 AM 59.0 °F - 50.0 °F 72% 29.69 in 10.0 mi NNW 9.2 mph - N/A   Clear
4:05 AM 59.0 °F - 53.6 °F 82% 29.69 in 10.0 mi NNW 9.2 mph - N/A   Clear
4:25 AM 60.8 °F - 53.6 °F 77% 29.70 in 10.0 mi NNW 9.2 mph - N/A   Clear
4:45 AM 60.8 °F - 53.6 °F 77% 29.69 in 10.0 mi NNW 11.5 mph - N/A   Partly Cloudy
5:05 AM 60.8 °F - 53.6 °F 77% 29.70 in 10.0 mi NW 6.9 mph - N/A   Scattered Clouds
5:25 AM 62.6 °F - 53.6 °F 72% 29.69 in 10.0 mi North 10.4 mph - N/A   Scattered Clouds
5:45 AM 62.6 °F - 53.6 °F 72% 29.70 in 10.0 mi North 11.5 mph - N/A   Clear
6:05 AM 59.0 °F - 55.4 °F 88% 29.73 in 10.0 mi SE 9.2 mph - N/A   Partly Cloudy
6:25 AM 59.0 °F - 53.6 °F 82% 29.75 in 10.0 mi Calm Calm - N/A   Partly Cloudy
6:45 AM 59.0 °F - 53.6 °F 82% 29.74 in 10.0 mi NNW 3.5 mph - N/A   Clear
7:05 AM 59.0 °F - 55.4 °F 88% 29.73 in 10.0 mi SE 3.5 mph - N/A   Clear
7:25 AM 62.6 °F - 55.4 °F 77% 29.76 in 10.0 mi North 5.8 mph - N/A   Clear
7:45 AM 62.6 °F - 55.4 °F 77% 29.77 in 10.0 mi NNW 9.2 mph - N/A   Clear
8:05 AM 62.6 °F - 55.4 °F 77% 29.78 in 10.0 mi NNW 10.4 mph - N/A   Clear
8:25 AM 62.6 °F - 55.4 °F 77% 29.78 in 10.0 mi NNW 10.4 mph - N/A   Clear
8:45 AM 64.4 °F - 55.4 °F 73% 29.78 in 10.0 mi North 11.5 mph - N/A   Clear
9:05 AM 68.0 °F - 55.4 °F 64% 29.77 in 10.0 mi NNE 11.5 mph - N/A   Clear
9:25 AM 68.0 °F - 53.6 °F 60% 29.77 in 10.0 mi NNE 16.1 mph 19.6 mph N/A   Clear
9:45 AM 69.8 °F - 53.6 °F 56% 29.76 in 10.0 mi NNE 11.5 mph 19.6 mph N/A   Clear
10:05 AM 69.8 °F - 53.6 °F 56% 29.77 in 10.0 mi North 12.7 mph 21.9 mph N/A   Clear
10:25 AM 71.6 °F - 55.4 °F 57% 29.78 in 10.0 mi North 17.3 mph 20.7 mph N/A   Clear
10:45 AM 71.6 °F - 55.4 °F 57% 29.78 in 10.0 mi North 12.7 mph - N/A   Clear
11:05 AM 73.4 °F - 55.4 °F 53% 29.77 in 10.0 mi North 9.2 mph - N/A   Clear
11:25 AM 73.4 °F - 55.4 °F 53% 29.77 in 10.0 mi NE 12.7 mph - N/A   Clear
11:45 AM 73.4 °F - 55.4 °F 53% 29.75 in 10.0 mi NE 15.0 mph - N/A   Clear
12:05 PM 75.2 °F - 57.2 °F 53% 29.77 in 10.0 mi NE 10.4 mph - N/A   Clear
12:25 PM 75.2 °F - 55.4 °F 50% 29.77 in 10.0 mi NE 9.2 mph - N/A   Clear
12:45 PM 75.2 °F - 57.2 °F 53% 29.76 in 10.0 mi ENE 10.4 mph - N/A   Clear
1:25 PM 75.2 °F - 55.4 °F 50% 29.76 in 10.0 mi NE 10.4 mph - N/A   Clear
1:45 PM 77.0 °F - 55.4 °F 47% 29.76 in 10.0 mi Calm Calm - N/A   Clear
2:05 PM 77.0 °F - 53.6 °F 44% 29.76 in 10.0 mi Calm Calm - N/A   Clear
2:25 PM 77.0 °F - 55.4 °F 47% 29.76 in 10.0 mi North 5.8 mph - N/A   Clear
2:45 PM 77.0 °F - 53.6 °F 44% 29.75 in 10.0 mi Calm Calm - N/A   Clear
3:05 PM 78.8 °F - 55.4 °F 44% 29.75 in 10.0 mi Calm Calm - N/A   Clear
3:25 PM 78.8 °F - 53.6 °F 42% 29.75 in 10.0 mi Calm Calm - N/A   Clear
3:45 PM 80.6 °F 80.5 °F 55.4 °F 42% 29.74 in 10.0 mi North 10.4 mph - N/A   Clear
4:05 PM 80.6 °F 80.5 °F 55.4 °F 42% 29.72 in 10.0 mi North 4.6 mph - N/A   Clear
4:25 PM 80.6 °F 80.8 °F 57.2 °F 45% 29.71 in 10.0 mi NNW 8.1 mph - N/A   Clear
4:45 PM 80.6 °F 80.8 °F 57.2 °F 45% 29.70 in 10.0 mi North 13.8 mph 17.3 mph N/A   Clear
5:05 PM 78.8 °F - 55.4 °F 44% 29.71 in 10.0 mi NNW 13.8 mph - N/A   Clear
5:25 PM 78.8 °F - 55.4 °F 44% 29.71 in 10.0 mi North 11.5 mph 18.4 mph N/A   Clear
5:45 PM 78.8 °F - 53.6 °F 42% 29.73 in 10.0 mi NNE 8.1 mph - N/A   Clear
6:05 PM 78.8 °F - 53.6 °F 42% 29.73 in 10.0 mi NE 6.9 mph - N/A   Clear
6:25 PM 77.0 °F - 53.6 °F 44% 29.73 in 10.0 mi ESE 6.9 mph - N/A   Clear
6:45 PM 77.0 °F - 55.4 °F 47% 29.73 in 10.0 mi ESE 8.1 mph - N/A   Clear
7:05 PM 77.0 °F - 55.4 °F 47% 29.72 in 10.0 mi SE 6.9 mph - N/A   Clear
7:25 PM 75.2 °F - 57.2 °F 53% 29.72 in 10.0 mi ESE 4.6 mph - N/A   Clear
7:45 PM 75.2 °F - 57.2 °F 53% 29.73 in 10.0 mi East 3.5 mph - N/A   Clear
8:05 PM 73.4 °F - 59.0 °F 61% 29.73 in 10.0 mi SE 5.8 mph - N/A   Clear
8:25 PM 71.6 °F - 59.0 °F 64% 29.74 in 10.0 mi SE 3.5 mph - N/A   Clear
8:45 PM 68.0 °F - 59.0 °F 73% 29.74 in 10.0 mi Calm Calm - N/A   Clear
9:05 PM 69.8 °F - 57.2 °F 64% 29.75 in 10.0 mi Calm Calm - N/A   Clear
9:25 PM 64.4 °F - 57.2 °F 77% 29.77 in 10.0 mi NNW 5.8 mph - N/A   Clear
9:45 PM 66.2 °F - 55.4 °F 68% 29.77 in 10.0 mi NW 4.6 mph - N/A   Clear
10:05 PM 66.2 °F - 53.6 °F 64% 29.78 in 10.0 mi North 5.8 mph - N/A   Clear
10:25 PM 64.4 °F - 53.6 °F 68% 29.79 in 10.0 mi North 6.9 mph - N/A   Clear
10:45 PM 62.6 °F - 53.6 °F 72% 29.80 in 10.0 mi NNE 4.6 mph - N/A   Clear
11:05 PM 62.6 °F - 53.6 °F 72% 29.82 in 10.0 mi NW 9.2 mph - N/A   Clear
11:25 PM 62.6 °F - 53.6 °F 72% 29.83 in 10.0 mi NNW 6.9 mph - N/A   Clear
11:45 PM 62.6 °F - 53.6 °F 72% 29.84 in 10.0 mi NNW 9.2 mph - N/A   Clear